Regional Weather Roundup
Issued by NWS Midland/Odessa, TX

Skip options and go directly to product.
Home | Oldest Version | Previous Version | Current Version | All | Graphics & Text | Save Text | Print | Product List | Glossary On

Skip product version selection by date and time.   
802
ASUS44 KMAF 280301
RWRMAF
MIDLAND AREA WEATHER ROUNDUP
NATIONAL WEATHER SERVICE MIDLAND TX
1000 PM CDT SAT MAY 27 2017

...IN SOUTHWEST TEXAS AND SOUTHEAST NEW MEXICO...

CITY           SKY/WX    TMP DP  RH WIND       PRES   REMARKS
ALPINE         CLEAR     83  29  14 CALM      30.07R
ANDREWS        FAIR      84  31  14 CALM      29.90R
ARTESIA        CLEAR     79  10   7 SW12      29.92R
BIG SPRING     CLEAR     79  38  23 S6        29.87R
CARLSBAD       CLEAR     79  13   8 NW7       29.90R
DRYDEN           N/A     85  69  58 E6        29.84R
FORT STOCKTON  CLEAR     84  35  17 E5        29.91R
GUAD PASS      NOT AVBL
HOBBS          CLEAR     81   5   5 W12       29.93R
MARFA          CLEAR     70  31  23 N8        30.06R
MIDLAND AIRPK  CLEAR     87  28  12 SW5       29.88R
MIDLAND INTL   CLEAR     86  28  12 SW7       29.87R
ODESSA         CLEAR     85  26  11 W6        29.89R
PECOS          CLEAR     85  29  13 NW8       29.86R
PRESIDIO       FAIR      91  30  11 N7        29.86R
SEMINOLE       CLEAR     77  20  12 W8        29.90R
SNYDER         CLEAR     87  27  11 W3        29.84R
WINK           CLEAR     87  20   8 NW12      29.86R
$$
...OTHER STATIONS IN TEXAS...

CITY           SKY/WX    TMP DP  RH WIND       PRES   REMARKS
ABILENE        CLEAR     86  73  65 SE10      29.80R
AMARILLO       CLEAR     67  55  65 N13       29.96R
AUSTIN         CLOUDY    82  73  74 S14       29.84R
BROWNSVILLE    CLOUDY    84  78  82 SE15      29.87R
CORPUS CHRISTI CLOUDY    80  78  94 SE14      29.84R
DALLAS FTW     CLEAR     86  76  71 S10       29.72F
DEL RIO        CLOUDY    83  78  85 E6        29.78R
EL PASO        PTCLDY    87  17   7 NW13      29.96R
HOUSTON INT    MOCLDY    81  73  76 S9        29.87S
LUBBOCK        PTCLDY    79  20  11 N5        29.87R
SAN ANGELO     PTCLDY    89  68  49 S10G20    29.82R
SAN ANTONIO    MOCLDY    83  74  74 SE13      29.88R
WACO           CLEAR     84  74  71 S16G24    29.79S
WICHITA FALLS  NOT AVBL
$$
...OTHER LOCATIONS IN NEW MEXICO...

CITY           SKY/WX    TMP DP  RH WIND       PRES   REMARKS
ALAMOGORDO     CLEAR     72   9   8 S7        30.00R
ALBUQUERQUE    PTCLDY    76  17  11 N12       30.06R
CANNON AFB     CLEAR     76  13   9 NW8       29.96R
CLOVIS         CLEAR     70  18  13 NW8       29.95R
HOLLOMAN AFB   CLEAR     80   3   5 SW15      30.01R
ROSWELL        CLEAR     77  10   7 SW10      29.90R
RUIDOSO        CLEAR     66   1   7 SW15      30.16R
SANTA FE       CLEAR     62  20  19 N7        30.11R
TRUTH OR CONSE LGT RAIN  79   2   5 W12       30.02R
TUCUMCARI      CLEAR     65  28  24 NW8       29.91R
$$